Showing default

COSMOS 2458 (GLONASS), 36113

Orbit data source: Space-Track

COSMOS 2458 (GLONASS), 36113 is a Commonwealth of Independent States-origin payload satellite in MEO that was launched on Mon, 14 Dec 2009 UTC via a PROTON-M/DM-2 launch vehicle from the Tyuratam Missile And Space Complex (TTMTR). Payload-class satellites include a variety of spacecraft equipped with specific instruments for various scientific and technological missions. These include communications satellites like Starlink; space stations such as the ISS; scientific satellites like the Hubble; Earth observation satellites from companies like Planet Labs, Umbra, and HawkEye 360; GPS; miniature CubeSats for education and research; and military/defense satellites.

Loading next visibility...
Identifier
36113, 2009-070C
Orbit
MEO
Country
Flag of CISCIS
Related business
Manufacturer
Resehetnev ISS
Mission
Non-operational Defense Navigation
Bus & Motor
URAGAN, Unknown motor
Mass
1,450 kg wet, ~1,200 kg dry
Launch date (UTC)
2009-12-14 (16 years ago)
Launch vehicle
PROTON-M/DM-2
Launch site
Tyuratam Missile And Space Complex (TTMTR)
Object type
Payload
Rocket body
Debris
Shape & HBR
Cyl + 1 Ant + 2 Pan, 3.9 m
Radar Cross Section
8.467 m², Large (>1 m²)

Expand to show TLE details & history
Last TLE update: 1 day ago

TLE from 1 day ago
0 COSMOS 2458 (GLONASS)
1 36113U 09070C   25348.41433435 -.00000057  00000-0  00000-0 0  9992
2 36113  64.8905  77.1770 0004857 309.4072  47.6196  2.13082435124510
Epoch: 2025-12-14T09:56Z
TLE epoch observation values (Epoch: 2025-12-14T09:56:38.487Z)
Latitude
-2.67409°
Longitude
-156.55678°
Altitude
19,124.054 km
Speed
3.954 km/s
True Right ascension
05h 03m 43s
True Declination
-2° 40' 11"
Sunlit
Object was in daylight at epoch
Visualization orbit readout
Latitude
Unknown
Longitude
Unknown
Altitude
Unknown
Speed
Unknown
Apparent Right ascension
Unknown
Apparent Declination
Unknown
Sunlit
N/A
Visualization observer readout
Local Sidereal Time
13:26:10
Azimuth
Unknown
Elevation
Unknown
Doppler factor
Unknown
Orbital elements
Apogee altitude
19,143.457 km
Perigee altitude
19,118.678 km
Semi-major axis
25,509.205 km
Eccentricity
0.00049
Inclination
64.8905°
RAAN
77.177°
Arg. of periapsis
309.4072°
True anomaly
47.66073°
Mean anomaly
47.6196°
Eccentric anomaly
47.64016°
Mean motion
0.53272 °/min
Orbital period
675.78 mins
BSTAR
0
Loading maneuver chart data...
Computing Atmospheric mass density...

Documentation

Showing up to 5 results
|